owner,sensor,date,latitude,longitude,vertical_datum,direction_of_sea_water_velocity,sea_water_speed,upward_sea_water_velocity,qcFlag 
TABS,ioos:station:wmo:42051:1,2011-03-01T00:00:00Z,29.6350,-93.6417,2.0,231.3143227,21.02255218,-99999.0,'11111222,11111222,99999999' 
TABS,ioos:station:wmo:42051:1,2011-03-01T00:30:00Z,29.6350,-93.6417,2.0,241.4893584,32.41035791,-99999.0,'11111222,11111222,99999999' 
TABS,ioos:station:wmo:42051:1,2011-03-01T01:00:00Z,29.6350,-93.6417,2.0,246.7019767,21.26379552,-99999.0,'11111222,11111222,99999999' 
TABS,ioos:station:wmo:42051:1,2011-03-01T01:30:00Z,29.6350,-93.6417,2.0,238.4372695,36.60494092,-99999.0,'11111222,11111222,99999999' 
TABS,ioos:station:wmo:42051:1,2011-03-01T02:00:00Z,29.6350,-93.6417,2.0,219.4067058,37.36462632,-99999.0,'11111222,11111222,99999999' 
TABS,ioos:station:wmo:42051:1,2011-03-01T02:30:00Z,29.6350,-93.6417,2.0,222.227349,46.05119434,-99999.0,'11111222,11111222,99999999' 
TABS,ioos:station:wmo:42051:1,2011-03-01T03:00:00Z,29.6350,-93.6417,2.0,214.014396,38.18340084,-99999.0,'11111222,11111222,99999999' 
TABS,ioos:station:wmo:42051:1,2011-03-01T03:30:00Z,29.6350,-93.6417,2.0,222.0306182,42.86578589,-99999.0,'11111222,11111222,99999999' 
TABS,ioos:station:wmo:42051:1,2011-03-01T04:00:00Z,29.6350,-93.6417,2.0,224.4771436,48.07111815,-99999.0,'11111222,11111222,99999999' 
TABS,ioos:station:wmo:42051:1,2011-03-01T04:30:00Z,29.6350,-93.6417,2.0,215.8966684,42.63814724,-99999.0,'11111222,11111222,99999999' 
TABS,ioos:station:wmo:42051:1,2011-03-01T05:00:00Z,29.6350,-93.6417,2.0,207.2194841,39.92089177,-99999.0,'11111222,11111222,99999999' 
TABS,ioos:station:wmo:42051:1,2011-03-01T05:30:00Z,29.6350,-93.6417,2.0,216.8578613,39.04400082,-99999.0,'11111222,11111222,99999999' 
TABS,ioos:station:wmo:42051:1,2011-03-01T06:00:00Z,29.6350,-93.6417,2.0,224.9725428,44.78107748,-99999.0,'11111222,11111222,99999999' 
TABS,ioos:station:wmo:42051:1,2011-03-01T06:30:00Z,29.6350,-93.6417,2.0,214.3080827,38.03800731,-99999.0,'11111222,11111222,99999999' 
TABS,ioos:station:wmo:42051:1,2011-03-01T07:00:00Z,29.6350,-93.6417,2.0,208.7306821,33.01453316,-99999.0,'11111222,11111222,99999999' 
TABS,ioos:station:wmo:42051:1,2011-03-01T07:30:00Z,29.6350,-93.6417,2.0,220.0083627,35.75964485,-99999.0,'11111222,11111222,99999999' 
TABS,ioos:station:wmo:42051:1,2011-03-01T08:00:00Z,29.6350,-93.6417,2.0,219.5236539,33.34376703,-99999.0,'11111222,11111222,99999999' 
TABS,ioos:station:wmo:42051:1,2011-03-01T08:30:00Z,29.6350,-93.6417,2.0,215.3061319,32.54611651,-99999.0,'11111222,11111222,99999999' 
TABS,ioos:station:wmo:42051:1,2011-03-01T09:00:00Z,29.6350,-93.6417,2.0,227.8203382,28.59468657,-99999.0,'11111222,11111222,99999999' 
TABS,ioos:station:wmo:42051:1,2011-03-01T09:30:00Z,29.6350,-93.6417,2.0,231.5987368,35.25658662,-99999.0,'11111222,11111222,99999999' 
TABS,ioos:station:wmo:42051:1,2011-03-01T10:00:00Z,29.6350,-93.6417,2.0,225.8164712,34.72247111,-99999.0,'11111222,11111222,99999999' 
TABS,ioos:station:wmo:42051:1,2011-03-01T10:30:00Z,29.6350,-93.6417,2.0,226.0494504,28.94673902,-99999.0,'11111222,11111222,99999999' 
TABS,ioos:station:wmo:42051:1,2011-03-01T11:00:00Z,29.6350,-93.6417,2.0,231.3005548,34.14740107,-99999.0,'11111222,11111222,99999999' 
TABS,ioos:station:wmo:42051:1,2011-03-01T11:30:00Z,29.6350,-93.6417,2.0,234.8399772,29.95534343,-99999.0,'11111222,11111222,99999999' 
TABS,ioos:station:wmo:42051:1,2011-03-01T12:00:00Z,29.6350,-93.6417,2.0,243.0087519,33.09472012,-99999.0,'11111222,11111222,99999999' 
TABS,ioos:station:wmo:42051:1,2011-03-01T12:30:00Z,29.6350,-93.6417,2.0,241.9218666,31.84823543,-99999.0,'11111222,11111222,99999999' 
TABS,ioos:station:wmo:42051:1,2011-03-01T13:00:00Z,29.6350,-93.6417,2.0,239.4518426,34.25431506,-99999.0,'11111222,11111222,99999999' 
TABS,ioos:station:wmo:42051:1,2011-03-01T13:30:00Z,29.6350,-93.6417,2.0,256.3408148,36.08038248,-99999.0,'11111222,11111222,99999999' 
TABS,ioos:station:wmo:42051:1,2011-03-01T14:00:00Z,29.6350,-93.6417,2.0,251.1102158,38.67271002,-99999.0,'11111222,11111222,99999999' 
TABS,ioos:station:wmo:42051:1,2011-03-01T14:30:00Z,29.6350,-93.6417,2.0,263.8150527,35.36582673,-99999.0,'11111222,11111222,99999999' 
TABS,ioos:station:wmo:42051:1,2011-03-01T15:00:00Z,29.6350,-93.6417,2.0,257.6373274,36.19933839,-99999.0,'11111222,11111222,99999999' 
TABS,ioos:station:wmo:42051:1,2011-03-01T15:30:00Z,29.6350,-93.6417,2.0,261.3139576,33.10971006,-99999.0,'11111222,11111222,99999999' 
TABS,ioos:station:wmo:42051:1,2011-03-01T16:00:00Z,29.6350,-93.6417,2.0,263.3921689,30.0697273,-99999.0,'11111222,11111222,99999999' 
TABS,ioos:station:wmo:42051:1,2011-03-01T16:30:00Z,29.6350,-93.6417,2.0,255.9061453,36.42644369,-99999.0,'11111222,11111222,99999999' 
TABS,ioos:station:wmo:42051:1,2011-03-01T17:00:00Z,29.6350,-93.6417,2.0,259.5798106,35.22082481,-99999.0,'11111222,11111222,99999999' 
TABS,ioos:station:wmo:42051:1,2011-03-01T18:30:00Z,29.6350,-93.6417,2.0,250.1595286,27.72570107,-99999.0,'11111222,11111222,99999999' 
TABS,ioos:station:wmo:42051:1,2011-03-01T19:00:00Z,29.6350,-93.6417,2.0,249.9185973,30.49377805,-99999.0,'11111222,11111222,99999999' 
TABS,ioos:station:wmo:42051:1,2011-03-01T19:30:00Z,29.6350,-93.6417,2.0,253.2813535,34.62350647,-99999.0,'11111222,11111222,99999999' 
TABS,ioos:station:wmo:42051:1,2011-03-01T20:00:00Z,29.6350,-93.6417,2.0,244.4943011,31.67708478,-99999.0,'11111222,11111222,99999999' 
TABS,ioos:station:wmo:42051:1,2011-03-01T20:30:00Z,29.6350,-93.6417,2.0,245.0006923,26.99942592,-99999.0,'11111222,11111222,99999999' 
TABS,ioos:station:wmo:42051:1,2011-03-01T21:00:00Z,29.6350,-93.6417,2.0,248.9941064,27.00456443,-99999.0,'11111222,11111222,99999999' 
TABS,ioos:station:wmo:42051:1,2011-03-01T21:30:00Z,29.6350,-93.6417,2.0,248.9941064,27.00456443,-99999.0,'11111222,11111222,99999999' 
TABS,ioos:station:wmo:42051:1,2011-03-01T22:00:00Z,29.6350,-93.6417,2.0,263.9952005,26.00265371,-99999.0,'11111222,11111222,99999999' 
TABS,ioos:station:wmo:42051:1,2011-03-01T22:30:00Z,29.6350,-93.6417,2.0,253.9980152,28.00508525,-99999.0,'11111222,11111222,99999999' 
TABS,ioos:station:wmo:42051:1,2011-03-01T23:00:00Z,29.6350,-93.6417,2.0,251.0070691,12.9975767,-99999.0,'11111222,11111222,99999999' 
TABS,ioos:station:wmo:42051:1,2011-03-01T23:30:00Z,29.6350,-93.6417,2.0,257.0084283,24.99988,-99999.0,'11111222,11111222,99999999' 
TABS,ioos:station:wmo:42051:1,2011-03-02T00:30:00Z,29.6350,-93.6417,2.0,263.2156209,21.67173274,-99999.0,'11111222,11111222,99999999' 
TABS,ioos:station:wmo:42051:1,2011-03-02T01:00:00Z,29.6350,-93.6417,2.0,259.9707084,17.45673795,-99999.0,'11111222,11111222,99999999' 
TABS,ioos:station:wmo:42051:1,2011-03-02T01:30:00Z,29.6350,-93.6417,2.0,269.3241416,14.42100205,-99999.0,'11111222,11111222,99999999' 
TABS,ioos:station:wmo:42051:1,2011-03-02T02:00:00Z,29.6350,-93.6417,2.0,246.0026073,26.94932281,-99999.0,'11111222,11111222,99999999' 
TABS,ioos:station:wmo:42051:1,2011-03-02T02:30:00Z,29.6350,-93.6417,2.0,252.9712035,22.67403802,-99999.0,'11111222,11111222,99999999' 
TABS,ioos:station:wmo:42051:1,2011-03-02T03:00:00Z,29.6350,-93.6417,2.0,254.8373576,21.10467484,-99999.0,'11111222,11111222,99999999' 
TABS,ioos:station:wmo:42051:1,2011-03-02T03:30:00Z,29.6350,-93.6417,2.0,260.8525201,16.7327822,-99999.0,'11111222,11111222,99999999' 
TABS,ioos:station:wmo:42051:1,2011-03-02T04:00:00Z,29.6350,-93.6417,2.0,251.1844424,18.10760061,-99999.0,'11111222,11111222,99999999' 
TABS,ioos:station:wmo:42051:1,2011-03-02T04:30:00Z,29.6350,-93.6417,2.0,246.2465445,17.50265408,-99999.0,'11111222,11111222,99999999' 
TABS,ioos:station:wmo:42051:1,2011-03-02T05:00:00Z,29.6350,-93.6417,2.0,239.2536745,20.30386416,-99999.0,'11111222,11111222,99999999' 
TABS,ioos:station:wmo:42051:1,2011-03-02T05:30:00Z,29.6350,-93.6417,2.0,235.4159699,20.80656147,-99999.0,'11111222,11111222,99999999' 
TABS,ioos:station:wmo:42051:1,2011-03-02T06:00:00Z,29.6350,-93.6417,2.0,227.5676722,22.88374314,-99999.0,'11111222,11111222,99999999' 
TABS,ioos:station:wmo:42051:1,2011-03-02T06:30:00Z,29.6350,-93.6417,2.0,225.5703736,23.42760978,-99999.0,'11111222,11111222,99999999' 
TABS,ioos:station:wmo:42051:1,2011-03-02T07:00:00Z,29.6350,-93.6417,2.0,221.9458459,28.00584403,-99999.0,'11111222,11111222,99999999' 
TABS,ioos:station:wmo:42051:1,2011-03-02T07:30:00Z,29.6350,-93.6417,2.0,218.7053177,27.34603445,-99999.0,'11111222,11111222,99999999' 
TABS,ioos:station:wmo:42051:1,2011-03-02T08:00:00Z,29.6350,-93.6417,2.0,224.5977925,32.25900494,-99999.0,'11111222,11111222,99999999' 
TABS,ioos:station:wmo:42051:1,2011-03-02T08:30:00Z,29.6350,-93.6417,2.0,224.094531,30.43767402,-99999.0,'11111222,11111222,99999999' 
TABS,ioos:station:wmo:42051:1,2011-03-02T09:00:00Z,29.6350,-93.6417,2.0,222.1921258,26.56253,-99999.0,'11111222,11111222,99999999' 
TABS,ioos:station:wmo:42051:1,2011-03-02T09:30:00Z,29.6350,-93.6417,2.0,221.7933866,29.70963648,-99999.0,'11111222,11111222,99999999' 
TABS,ioos:station:wmo:42051:1,2011-03-02T10:00:00Z,29.6350,-93.6417,2.0,222.9099159,30.63810046,-99999.0,'11111222,11111222,99999999' 
TABS,ioos:station:wmo:42051:1,2011-03-02T10:30:00Z,29.6350,-93.6417,2.0,219.8886572,31.66995579,-99999.0,'11111222,11111222,99999999' 
TABS,ioos:station:wmo:42051:1,2011-03-02T11:00:00Z,29.6350,-93.6417,2.0,216.1664768,29.01018442,-99999.0,'11111222,11111222,99999999' 
TABS,ioos:station:wmo:42051:1,2011-03-02T11:30:00Z,29.6350,-93.6417,2.0,217.8555843,28.94028507,-99999.0,'11111222,11111222,99999999' 
TABS,ioos:station:wmo:42051:1,2011-03-02T12:00:00Z,29.6350,-93.6417,2.0,216.9786215,32.58405899,-99999.0,'11111222,11111222,99999999' 
TABS,ioos:station:wmo:42051:1,2011-03-02T12:30:00Z,29.6350,-93.6417,2.0,220.3457314,30.67644047,-99999.0,'11111222,11111222,99999999' 
TABS,ioos:station:wmo:42051:1,2011-03-02T13:00:00Z,29.6350,-93.6417,2.0,223.8600008,31.99584035,-99999.0,'11111222,11111222,99999999' 
TABS,ioos:station:wmo:42051:1,2011-03-02T13:30:00Z,29.6350,-93.6417,2.0,227.4711564,31.15582129,-99999.0,'11111222,11111222,99999999' 
TABS,ioos:station:wmo:42051:1,2011-03-02T14:00:00Z,29.6350,-93.6417,2.0,228.3041943,32.26235732,-99999.0,'11111222,11111222,99999999' 
TABS,ioos:station:wmo:42051:1,2011-03-02T14:30:00Z,29.6350,-93.6417,2.0,231.3978501,33.94750801,-99999.0,'11111222,11111222,99999999' 
TABS,ioos:station:wmo:42051:1,2011-03-02T15:00:00Z,29.6350,-93.6417,2.0,232.252862,32.93185692,-99999.0,'11111222,11111222,99999999' 
TABS,ioos:station:wmo:42051:1,2011-03-02T15:30:00Z,29.6350,-93.6417,2.0,235.1495248,31.09731982,-99999.0,'11111222,11111222,99999999' 
TABS,ioos:station:wmo:42051:1,2011-03-02T16:00:00Z,29.6350,-93.6417,2.0,238.0901667,26.59962406,-99999.0,'11111222,11111222,99999999' 
TABS,ioos:station:wmo:42051:1,2011-03-02T16:30:00Z,29.6350,-93.6417,2.0,235.8029274,26.97335166,-99999.0,'11111222,11111222,99999999' 
TABS,ioos:station:wmo:42051:1,2011-03-02T17:00:00Z,29.6350,-93.6417,2.0,235.3236975,26.43537781,-99999.0,'11111222,11111222,99999999' 
TABS,ioos:station:wmo:42051:1,2011-03-02T17:30:00Z,29.6350,-93.6417,2.0,238.1479368,27.66604417,-99999.0,'11111222,11111222,99999999' 
TABS,ioos:station:wmo:42051:1,2011-03-02T18:00:00Z,29.6350,-93.6417,2.0,247.0056471,24.26820966,-99999.0,'11111222,11111222,99999999' 
TABS,ioos:station:wmo:42051:1,2011-03-02T18:30:00Z,29.6350,-93.6417,2.0,258.8977173,24.30483285,-99999.0,'11111222,11111222,99999999' 
TABS,ioos:station:wmo:42051:1,2011-03-02T19:00:00Z,29.6350,-93.6417,2.0,248.0081037,25.74308645,-99999.0,'11111222,11111222,99999999' 
TABS,ioos:station:wmo:42051:1,2011-03-02T19:30:00Z,29.6350,-93.6417,2.0,261.5541847,23.89915689,-99999.0,'11111222,11111222,99999999' 
TABS,ioos:station:wmo:42051:1,2011-03-02T20:00:00Z,29.6350,-93.6417,2.0,269.2262315,17.78161972,-99999.0,'11111222,11111222,99999999' 
TABS,ioos:station:wmo:42051:1,2011-03-02T20:30:00Z,29.6350,-93.6417,2.0,258.148824,9.349272699,-99999.0,'11133222,11111222,99999999' 
TABS,ioos:station:wmo:42051:1,2011-03-02T21:00:00Z,29.6350,-93.6417,2.0,219.3868295,7.012766929,-99999.0,'11133222,11111222,99999999' 
TABS,ioos:station:wmo:42051:1,2011-03-02T21:30:00Z,29.6350,-93.6417,2.0,171.0034196,6.267096616,-99999.0,'11133222,11111222,99999999' 
TABS,ioos:station:wmo:42051:1,2011-03-02T22:00:00Z,29.6350,-93.6417,2.0,168.9275445,11.82002115,-99999.0,'11111222,11111222,99999999' 
TABS,ioos:station:wmo:42051:1,2011-03-02T22:30:00Z,29.6350,-93.6417,2.0,186.23797,16.7491761,-99999.0,'11111222,11111222,99999999' 
TABS,ioos:station:wmo:42051:1,2011-03-02T23:00:00Z,29.6350,-93.6417,2.0,197.0215035,18.2076083,-99999.0,'11111222,11111222,99999999' 
TABS,ioos:station:wmo:42051:1,2011-03-02T23:30:00Z,29.6350,-93.6417,2.0,191.6107698,16.04840491,-99999.0,'11111222,11111222,99999999' 
TABS,ioos:station:wmo:42051:1,2011-03-03T00:00:00Z,29.6350,-93.6417,2.0,196.0197723,20.03817606,-99999.0,'11111222,11111222,99999999' 
TABS,ioos:station:wmo:42051:1,2011-03-03T00:30:00Z,29.6350,-93.6417,2.0,191.5735079,14.0557924,-99999.0,'11111222,11111222,99999999' 
TABS,ioos:station:wmo:42051:1,2011-03-03T01:00:00Z,29.6350,-93.6417,2.0,199.3003798,12.7675722,-99999.0,'11111222,11111222,99999999' 
TABS,ioos:station:wmo:42051:1,2011-03-03T01:30:00Z,29.6350,-93.6417,2.0,179.4483567,10.39048122,-99999.0,'11111222,11111222,99999999' 
TABS,ioos:station:wmo:42051:1,2011-03-03T02:00:00Z,29.6350,-93.6417,2.0,204.6138564,9.195569585,-99999.0,'11133222,11111222,99999999' 
TABS,ioos:station:wmo:42051:1,2011-03-04T02:30:00Z,29.6350,-93.6417,2.0,255.0641318,36.31690653,-99999.0,'11111222,11111222,99999999' 
TABS,ioos:station:wmo:42051:1,2011-03-04T03:00:00Z,29.6350,-93.6417,2.0,254.956899,40.45633325,-99999.0,'11111222,11111222,99999999' 
TABS,ioos:station:wmo:42051:1,2011-03-04T03:30:00Z,29.6350,-93.6417,2.0,254.840406,40.34384835,-99999.0,'11111222,11111222,99999999' 
TABS,ioos:station:wmo:42051:1,2011-03-04T04:00:00Z,29.6350,-93.6417,2.0,256.0287035,42.53835093,-99999.0,'11111222,11111222,99999999' 
TABS,ioos:station:wmo:42051:1,2011-03-04T04:30:00Z,29.6350,-93.6417,2.0,255.4535644,46.06661481,-99999.0,'11111222,11111222,99999999' 
TABS,ioos:station:wmo:42051:1,2011-03-04T05:00:00Z,29.6350,-93.6417,2.0,255.5268568,43.61402183,-99999.0,'11111222,11111222,99999999' 
TABS,ioos:station:wmo:42051:1,2011-03-04T05:30:00Z,29.6350,-93.6417,2.0,253.6896082,41.87521582,-99999.0,'11111222,11111222,99999999' 
TABS,ioos:station:wmo:42051:1,2011-03-04T06:00:00Z,29.6350,-93.6417,2.0,257.3873626,42.45442026,-99999.0,'11111222,11111222,99999999' 
TABS,ioos:station:wmo:42051:1,2011-03-04T06:30:00Z,29.6350,-93.6417,2.0,255.8355074,40.21250676,-99999.0,'11111222,11111222,99999999' 
TABS,ioos:station:wmo:42051:1,2011-03-04T07:00:00Z,29.6350,-93.6417,2.0,256.3424847,40.32000496,-99999.0,'11111222,11111222,99999999' 
TABS,ioos:station:wmo:42051:1,2011-03-04T07:30:00Z,29.6350,-93.6417,2.0,257.829041,36.95048714,-99999.0,'11111222,11111222,99999999' 
TABS,ioos:station:wmo:42051:1,2011-03-04T08:00:00Z,29.6350,-93.6417,2.0,252.3831269,37.63494387,-99999.0,'11111222,11111222,99999999' 
TABS,ioos:station:wmo:42051:1,2011-03-04T08:30:00Z,29.6350,-93.6417,2.0,255.7495797,32.5,-99999.0,'11111222,11111222,99999999' 
TABS,ioos:station:wmo:42051:1,2011-03-04T09:00:00Z,29.6350,-93.6417,2.0,248.8256006,33.748437,-99999.0,'11111222,11111222,99999999' 
TABS,ioos:station:wmo:42051:1,2011-03-04T09:30:00Z,29.6350,-93.6417,2.0,244.752229,32.28394183,-99999.0,'11111222,11111222,99999999' 
TABS,ioos:station:wmo:42051:1,2011-03-04T10:00:00Z,29.6350,-93.6417,2.0,246.9784587,30.53151814,-99999.0,'11111222,11111222,99999999' 
TABS,ioos:station:wmo:42051:1,2011-03-04T10:30:00Z,29.6350,-93.6417,2.0,237.4493024,29.42157202,-99999.0,'11111222,11111222,99999999' 
TABS,ioos:station:wmo:42051:1,2011-03-04T11:00:00Z,29.6350,-93.6417,2.0,238.454108,27.86824178,-99999.0,'11111222,11111222,99999999' 
TABS,ioos:station:wmo:42051:1,2011-03-04T11:30:00Z,29.6350,-93.6417,2.0,242.9897413,25.34435835,-99999.0,'11111222,11111222,99999999' 
TABS,ioos:station:wmo:42051:1,2011-03-04T12:00:00Z,29.6350,-93.6417,2.0,257.1888829,23.5871342,-99999.0,'11111222,11111222,99999999' 
TABS,ioos:station:wmo:42051:1,2011-03-04T12:30:00Z,29.6350,-93.6417,2.0,258.7204417,25.5637419,-99999.0,'11111222,11111222,99999999' 
TABS,ioos:station:wmo:42051:1,2011-03-04T13:00:00Z,29.6350,-93.6417,2.0,263.5220171,21.18524487,-99999.0,'11111222,11111222,99999999' 
TABS,ioos:station:wmo:42051:1,2011-03-04T13:30:00Z,29.6350,-93.6417,2.0,256.2843661,22.94423021,-99999.0,'11111222,11111222,99999999' 
TABS,ioos:station:wmo:42051:1,2011-03-04T14:00:00Z,29.6350,-93.6417,2.0,254.2444549,24.82256433,-99999.0,'11111222,11111222,99999999' 
TABS,ioos:station:wmo:42051:1,2011-03-04T14:30:00Z,29.6350,-93.6417,2.0,251.0749789,26.64,-99999.0,'11111222,11111222,99999999' 
TABS,ioos:station:wmo:42051:1,2011-03-04T15:00:00Z,29.6350,-93.6417,2.0,254.8506154,22.72987461,-99999.0,'11111222,11111222,99999999' 
TABS,ioos:station:wmo:42051:1,2011-03-04T15:30:00Z,29.6350,-93.6417,2.0,256.648821,22.90912918,-99999.0,'11111222,11111222,99999999' 
TABS,ioos:station:wmo:42051:1,2011-03-04T16:00:00Z,29.6350,-93.6417,2.0,265.6757684,19.36511554,-99999.0,'11111222,11111222,99999999' 
TABS,ioos:station:wmo:42051:1,2011-03-04T16:30:00Z,29.6350,-93.6417,2.0,272.2178906,16.28219273,-99999.0,'11111222,11111222,99999999' 
TABS,ioos:station:wmo:42051:1,2011-03-04T17:00:00Z,29.6350,-93.6417,2.0,274.0904396,18.50713376,-99999.0,'11111222,11111222,99999999' 
TABS,ioos:station:wmo:42051:1,2011-03-04T17:30:00Z,29.6350,-93.6417,2.0,270.9537226,18.63257899,-99999.0,'11111222,11111222,99999999' 
TABS,ioos:station:wmo:42051:1,2011-03-04T18:00:00Z,29.6350,-93.6417,2.0,277.8479483,20.36068024,-99999.0,'11111222,11111222,99999999' 
TABS,ioos:station:wmo:42051:1,2011-03-04T18:30:00Z,29.6350,-93.6417,2.0,273.614538,24.58890197,-99999.0,'11111222,11111222,99999999' 
TABS,ioos:station:wmo:42051:1,2011-03-04T19:00:00Z,29.6350,-93.6417,2.0,259.2835463,25.92206203,-99999.0,'11111222,11111222,99999999' 
TABS,ioos:station:wmo:42051:1,2011-03-04T19:30:00Z,29.6350,-93.6417,2.0,239.8011296,23.499117,-99999.0,'11111222,11111222,99999999' 
TABS,ioos:station:wmo:42051:1,2011-03-04T20:00:00Z,29.6350,-93.6417,2.0,247.0795534,27.0126785,-99999.0,'11111222,11111222,99999999' 
TABS,ioos:station:wmo:42051:1,2011-03-04T20:30:00Z,29.6350,-93.6417,2.0,243.0997763,24.48983463,-99999.0,'11111222,11111222,99999999' 
TABS,ioos:station:wmo:42051:1,2011-03-04T21:00:00Z,29.6350,-93.6417,2.0,233.5957632,24.83682146,-99999.0,'11111222,11111222,99999999' 
TABS,ioos:station:wmo:42051:1,2011-03-04T21:30:00Z,29.6350,-93.6417,2.0,240.6013826,25.42386477,-99999.0,'11111222,11111222,99999999' 
TABS,ioos:station:wmo:42051:1,2011-03-04T22:00:00Z,29.6350,-93.6417,2.0,237.6052322,22.32406997,-99999.0,'11111222,11111222,99999999' 
TABS,ioos:station:wmo:42051:1,2011-03-04T22:30:00Z,29.6350,-93.6417,2.0,269.3285797,22.20152247,-99999.0,'11111222,11111222,99999999' 
TABS,ioos:station:wmo:42051:1,2011-03-04T23:00:00Z,29.6350,-93.6417,2.0,261.7146543,19.36206859,-99999.0,'11111222,11111222,99999999' 
TABS,ioos:station:wmo:42051:1,2011-03-04T23:30:00Z,29.6350,-93.6417,2.0,247.9445614,23.48883352,-99999.0,'11111222,11111222,99999999' 
TABS,ioos:station:wmo:42051:1,2011-03-05T00:00:00Z,29.6350,-93.6417,2.0,251.2002022,24.85600531,-99999.0,'11111222,11111222,99999999' 
TABS,ioos:station:wmo:42051:1,2011-03-05T00:30:00Z,29.6350,-93.6417,2.0,247.9639496,23.16197315,-99999.0,'11111222,11111222,99999999' 
TABS,ioos:station:wmo:42051:1,2011-03-05T01:00:00Z,29.6350,-93.6417,2.0,245.7976973,24.29541521,-99999.0,'11111222,11111222,99999999' 
TABS,ioos:station:wmo:42051:1,2011-03-05T01:30:00Z,29.6350,-93.6417,2.0,253.8791438,24.27447219,-99999.0,'11111222,11111222,99999999' 
TABS,ioos:station:wmo:42051:1,2011-03-05T02:00:00Z,29.6350,-93.6417,2.0,244.2905042,23.35162735,-99999.0,'11111222,11111222,99999999' 
TABS,ioos:station:wmo:42051:1,2011-03-05T02:30:00Z,29.6350,-93.6417,2.0,246.1764609,18.79106703,-99999.0,'11111222,11111222,99999999' 
TABS,ioos:station:wmo:42051:1,2011-03-05T03:00:00Z,29.6350,-93.6417,2.0,250.4744193,19.77730265,-99999.0,'11111222,11111222,99999999' 
TABS,ioos:station:wmo:42051:1,2011-03-05T03:30:00Z,29.6350,-93.6417,2.0,261.7711483,19.77356316,-99999.0,'11111222,11111222,99999999' 
TABS,ioos:station:wmo:42051:1,2011-03-05T04:00:00Z,29.6350,-93.6417,2.0,248.1622422,23.65759075,-99999.0,'11111222,11111222,99999999' 
TABS,ioos:station:wmo:42051:1,2011-03-05T04:30:00Z,29.6350,-93.6417,2.0,252.0850707,21.58659769,-99999.0,'11111222,11111222,99999999' 
TABS,ioos:station:wmo:42051:1,2011-03-05T05:00:00Z,29.6350,-93.6417,2.0,242.2460054,21.77504305,-99999.0,'11111222,11111222,99999999' 
TABS,ioos:station:wmo:42051:1,2011-03-05T05:30:00Z,29.6350,-93.6417,2.0,250.1897183,23.45820539,-99999.0,'11111222,11111222,99999999' 
TABS,ioos:station:wmo:42051:1,2011-03-05T06:00:00Z,29.6350,-93.6417,2.0,256.8876158,21.95233017,-99999.0,'11111222,11111222,99999999' 
TABS,ioos:station:wmo:42051:1,2011-03-05T06:30:00Z,29.6350,-93.6417,2.0,267.3065871,26.17891136,-99999.0,'11111222,11111222,99999999' 
TABS,ioos:station:wmo:42051:1,2011-03-05T07:00:00Z,29.6350,-93.6417,2.0,267.2231101,30.96635109,-99999.0,'11111222,11111222,99999999' 
TABS,ioos:station:wmo:42051:1,2011-03-05T07:30:00Z,29.6350,-93.6417,2.0,253.4901781,28.04626535,-99999.0,'11111222,11111222,99999999' 
TABS,ioos:station:wmo:42051:1,2011-03-05T08:00:00Z,29.6350,-93.6417,2.0,252.1182703,26.51061108,-99999.0,'11111222,11111222,99999999' 
TABS,ioos:station:wmo:42051:1,2011-03-05T08:30:00Z,29.6350,-93.6417,2.0,246.609236,21.96506317,-99999.0,'11111222,11111222,99999999' 
TABS,ioos:station:wmo:42051:1,2011-03-05T09:00:00Z,29.6350,-93.6417,2.0,241.0920323,23.85194541,-99999.0,'11111222,11111222,99999999' 
TABS,ioos:station:wmo:42051:1,2011-03-05T09:30:00Z,29.6350,-93.6417,2.0,257.2948333,25.78122185,-99999.0,'11111222,11111222,99999999' 
TABS,ioos:station:wmo:42051:1,2011-03-05T10:00:00Z,29.6350,-93.6417,2.0,276.5953312,32.04202397,-99999.0,'11111222,11111222,99999999' 
TABS,ioos:station:wmo:42051:1,2011-03-05T10:30:00Z,29.6350,-93.6417,2.0,281.6675059,33.0324825,-99999.0,'11111222,11111222,99999999' 
TABS,ioos:station:wmo:42051:1,2011-03-05T11:00:00Z,29.6350,-93.6417,2.0,281.9986213,36.8960296,-99999.0,'11111222,11111222,99999999' 
TABS,ioos:station:wmo:42051:1,2011-03-05T11:30:00Z,29.6350,-93.6417,2.0,282.1208508,40.48242088,-99999.0,'11111222,11111222,99999999' 
TABS,ioos:station:wmo:42051:1,2011-03-05T12:00:00Z,29.6350,-93.6417,2.0,276.9742354,38.54516831,-99999.0,'11111222,11111222,99999999' 
TABS,ioos:station:wmo:42051:1,2011-03-05T12:30:00Z,29.6350,-93.6417,2.0,280.7627085,41.44907719,-99999.0,'11111222,11111222,99999999' 
TABS,ioos:station:wmo:42051:1,2011-03-05T13:00:00Z,29.6350,-93.6417,2.0,303.5137022,41.36696387,-99999.0,'11111222,11111222,99999999' 
TABS,ioos:station:wmo:42051:1,2011-03-05T13:30:00Z,29.6350,-93.6417,2.0,307.2124998,37.83267503,-99999.0,'11111222,11111222,99999999' 
TABS,ioos:station:wmo:42051:1,2011-03-05T14:00:00Z,29.6350,-93.6417,2.0,294.6159285,29.84194699,-99999.0,'11111222,11111222,99999999' 
TABS,ioos:station:wmo:42051:1,2011-03-05T14:30:00Z,29.6350,-93.6417,2.0,289.0824837,27.43767118,-99999.0,'11111222,11111222,99999999' 
TABS,ioos:station:wmo:42051:1,2011-03-05T15:00:00Z,29.6350,-93.6417,2.0,277.0517509,18.32862788,-99999.0,'11111222,11111222,99999999' 
TABS,ioos:station:wmo:42051:1,2011-03-05T15:30:00Z,29.6350,-93.6417,2.0,268.9528122,20.25337996,-99999.0,'11111222,11111222,99999999' 
TABS,ioos:station:wmo:42051:1,2011-03-05T16:00:00Z,29.6350,-93.6417,2.0,264.6836951,19.64449032,-99999.0,'11111222,11111222,99999999' 
TABS,ioos:station:wmo:42051:1,2011-03-05T16:30:00Z,29.6350,-93.6417,2.0,249.6764898,24.76142968,-99999.0,'11111222,11111222,99999999' 
TABS,ioos:station:wmo:42051:1,2011-03-05T17:00:00Z,29.6350,-93.6417,2.0,230.729146,29.89023252,-99999.0,'11111222,11111222,99999999' 
TABS,ioos:station:wmo:42051:1,2011-03-05T17:30:00Z,29.6350,-93.6417,2.0,232.5677149,32.21354994,-99999.0,'11111222,11111222,99999999' 